Regional Weather Roundup
Issued by NWS Newport/Morehead, NC

Current Version | Previous Version | Graphics & Text | Print | Product List | Glossary Off
Versions: 1 2 3 4 5 6 7 8 9 10 11 12 13 14 15 16 17 18 19 20 21 22 23 24 25 26 27 28 29 30 31 32 33 34 35 36 37 38 39 40 41 42 43 44 45 46 47 48 49 50

000
ASUS42 KMHX 020613
RWRMHX
WEATHER ROUNDUP FOR EASTERN NORTH CAROLINA
NATIONAL WEATHER SERVICE NEWPORT/MOREHEAD CITY NC
200 AM EDT MON MAY 02 2016

NOTE: "FAIR" INDICATES FEW OR NO CLOUDS BELOW 12,000 FEET
WITH NO SIGNIFICANT WEATHER AND/OR OBSTRUCTIONS TO VISIBILITY

NCZ015>017-031-032-045>047-102-103-020700-
NORTH COAST

CITY           SKY/WX    TMP DP  RH WIND       PRES   REMARKS
EDENTON        MOCLDY    67  67 100 S6        30.02F
ELIZABETH CITY MOCLDY    66  64  93 S6        30.02S
KITTY HAWK     MOCLDY    68  65  91 SW7       30.01F
MANTEO         NOT AVBL

$$

NCZ045>047-081-094-103-104-020700-
CENTRAL COAST

CITY           SKY/WX    TMP DP  RH WIND       PRES   REMARKS
FRISCO         CLOUDY    69  66  90 SW7       30.05S
SWANQUARTER    NOT AVBL

$$

NCZ095-097-098-100-101-020700-
SOUTHERN COAST

CITY           SKY/WX    TMP DP  RH WIND       PRES   REMARKS
BEAUFORT       CLOUDY    69  67  93 SW8       30.04F
CEDAR ISLAND   NOT AVBL
JACKSONVILLE   CLOUDY    68  66  93 S3        30.02F
PINEY ISLAND   NOT AVBL
WILMINGTON     CLOUDY    66  65  96 CALM      30.04S


$$

NCZ011>013-027>030-043-044-078>080-089-090>093-098-020700-
COASTAL PLAIN

CITY           SKY/WX    TMP DP  RH WIND       PRES   REMARKS
AHOSKIE        CLOUDY    64  63  98 CALM      30.01F
CLINTON        CLOUDY    67  67 100 CALM      30.03F
ELIZABETHTOWN  CLOUDY    67  67 100 S3        30.03F
GOLDSBORO      CLOUDY    68  68 100 S3        30.00F
GREENVILLE     CLOUDY    68  68 100 S9        30.03F FOG
HAVELOCK       CLOUDY    70  68  93 S8        30.04F
KENANSVILLE    CLOUDY    67  66  99 CALM      30.04F
KINSTON        MOCLDY    67  67  98 S6        30.02F FOG
NEW BERN       CLOUDY    67  65  93 S3        30.04F
RICHLANDS      FOG       65  64  97 CALM      30.04S VSB 1/2
ROCKY MOUNT    CLOUDY    68  66  93 S7        30.00S
WASHINGTON     CLOUDY    66  65  96 S3        30.02F
WHITEVILLE     MOCLDY    66  64  96 CALM      30.03F

$$

AMZ130-135-150-152-154-156-158-170-250-252-270-ANZ085-086-088-633-658-670-020700-
MARINE OBSERVATIONS

STATION/POSITION TIME  TEMP    WIND        PRES    WAVE   SWELL
                       AIR SEA DIR/SP/G            HT/PER HT/PER
                 (UTC) (F)     (DEG/KT/KT) (MB)    (FT/S) (FT/S)
CHESAPEAKE LIGHT 0600   63     200/ 20/ 20 1016.3
64 E VA BEACH    0550   57 53  210/  8/ 10 1016.2    5/ 9   5/ 9
DUCK             0500   68 66  180/  8/ 10 1016.2
2 E DUCK         0511      58                N/A     3/10
OREGON INLET     0500   69 67  190/  7/  8 1017.0
13E OREGON INLT  0600      59                N/A     5/ 8   5/ 8
HATTERAS CG      0500   70 67  200/  6/ 10 1017.3
DIAMOND BUOY     0550   74 73  210/ 14/ 16 1017.3    6/10   3/10
CAPE LOOKOUT     0600   69     210/  4/  4 1017.0
BEAUFORT LAB     0500   69 67  220/  2/  3 1016.9
30 SE NEW RVR IN 0525      70                N/A     4/10   2/11
27 SE WRIGHTSVLE 0508   73 71  220/ 10/ 14 1017.3
5 SE WRIGHTSVLE  0508   70 68  230/  8/ 10 1018.0
225 S CAPE HAT   0550   72 74  150/ 14/ 16 1019.5    4/ 8   3/ 8
41 SE CHARLESTON 0550   75 73  180/ 14/ 14 1016.1    3/11   2/11

$$




USA.gov is the U.S. government's official web portal to all federal, state and local government web resources and services.